Location: Cactus School
(34.5700°N, 118.0931°W)
Time: 05:05:15
(UTC-07:00)

ISS - Visible Passes

Search period start: 23 June 2018 00:00
Search period end: 03 July 2018 00:00
Orbit: 403 x 408 km, 51.6° (Epoch: 24 June)

Date Brightness Start Highest point End Pass type
(mag) Time Alt. Az. Time Alt. Az. Time Alt. Az.
29 Jun -1.5 04:41:28 10° S 04:43:46 18° SE 04:46:05 10° E visible
01 Jul -3.3 04:33:47 20° SSW 04:35:48 51° SE 04:38:59 10° ENE visible
02 Jul -2.1 03:43:46 23° SE 03:43:46 23° SE 03:46:27 10° ENE visible
